This is the latest recevied weather packets stored in our database for station/object K7LDN-13. If no packets are shown the sender has not sent any weather packets the latest 10 day(s).
| Time | Temp. | Humidity | Pressure | Rain* | Wind** | Luminosity | Snow |
|---|---|---|---|---|---|---|---|
| 1777993474 | 11.11° C | 59% | 1012.8 hPa | 0 mm | - | 40 W/m² | - |
| 1777993174 | 11.11° C | 59% | 1013 hPa | 0 mm | - | 44 W/m² | - |
| 1777992872 | 11.11° C | 59% | 1013 hPa | 0 mm | - | 46 W/m² | - |
| 1777992570 | 11.11° C | 59% | 1012.6 hPa | 0 mm | - | 45 W/m² | - |
| 1777992268 | 11.11° C | 58% | 1012.8 hPa | 0 mm | - | 43 W/m² | - |
| 1777991965 | 11.11° C | 58% | 1012.8 hPa | 0 mm | - | 48 W/m² | - |
| 1777991662 | 11.11° C | 59% | 1012.7 hPa | 0 mm | - | 48 W/m² | - |
| 1777991359 | 11.11° C | 57% | 1012.8 hPa | 0 mm | - | 41 W/m² | - |
| 1777991057 | 11.11° C | 57% | 1012.7 hPa | 0 mm | - | 39 W/m² | - |
| 1777990753 | 11.11° C | 57% | 1012.6 hPa | 0 mm | - | 45 W/m² | - |
| 1777990451 | 11.11° C | 58% | 1012.4 hPa | 0 mm | - | 47 W/m² | - |
| 1777989844 | 11.67° C | 56% | 1012.4 hPa | 0 mm | - | 37 W/m² | - |
| 1777989541 | 11.67° C | 55% | 1012.4 hPa | 0 mm | - | 27 W/m² | - |
| 1777989238 | 11.67° C | 55% | 1012.3 hPa | 0 mm | - | 21 W/m² | - |
| 1777988934 | 11.67° C | 55% | 1012.3 hPa | 0 mm | - | 17 W/m² | - |
| 1777988630 | 12.22° C | 55% | 1012.3 hPa | 0 mm | - | 13 W/m² | - |
| 1777988327 | 12.22° C | 54% | 1012 hPa | 0 mm | - | 11 W/m² | - |
| 1777988024 | 12.22° C | 55% | 1011.9 hPa | 0 mm | - | 10 W/m² | - |
| 1777987719 | 12.22° C | 56% | 1012 hPa | 0 mm | - | 8 W/m² | - |
| 1777987417 | 12.22° C | 58% | 1011.8 hPa | 0 mm | - | 7 W/m² | - |
| 1777987114 | 12.22° C | 59% | 1011.9 hPa | 0 mm | - | 6 W/m² | - |
| 1777986811 | 12.22° C | 60% | 1012 hPa | 0 mm | - | 6 W/m² | - |
| 1777986509 | 12.22° C | 62% | 1011.9 hPa | 0 mm | - | 5 W/m² | - |
| 1777986207 | 12.22° C | 61% | 1011.9 hPa | 0 mm | - | 5 W/m² | - |
| 1777985904 | 12.78° C | 64% | 1011.6 hPa | 0 mm | - | 4 W/m² | - |
* Rain latest hour (hover to see other rain measurements)
** Current wind speed in m/s (hover to see current wind gust speed)